CW7222 Mataro ES current weather conditions

sailwx.info

Wind from 029 at 1 knots gusting 2

Air temperature 23.3° C
Dewpoint 19.1° C

Last reported at 2020-Aug-05 21:03 UTC.
Time now 2020-Aug-05 22:08 UTC

Location: N 41°33' E 002°28'.
View on Google Maps.

See reports from other nearby stations

  
Tides and Currents Weather Stations Pressure Air Temp Water Temp Dewpoint Dewpoint Depression Visibility Wind Speed Wind Dir Waves Ship Positions
date/time (UTC)wind fromknots sea level pressurealtimeterstation pressurevisibilityair tempwater tempwave heightnotes
2020-Aug-05 21:03 029 1 gusting 2 23.3
2020-Aug-05 20:53 053 0 gusting 2 23.3
2020-Aug-05 20:43 065 23.3
2020-Aug-05 20:33 065 23.3
2020-Aug-05 20:23 086 23.9
2020-Aug-05 20:13 086 24.4
2020-Aug-05 20:03 086 24.4
2020-Aug-05 19:53 086 24.4
2020-Aug-05 19:43 086 24.4
2020-Aug-05 19:33 086 24.4
2020-Aug-05 19:23 086 24.4
2020-Aug-05 19:13 086 24.4
2020-Aug-05 19:03 086 25.0
2020-Aug-05 18:53 086 25.0
2020-Aug-05 18:43 090 25.0
2020-Aug-05 18:33 089 25.0
2020-Aug-05 18:23 110 1 gusting 6 25.0
2020-Aug-05 18:13 094 0 gusting 4 25.6
2020-Aug-05 18:03 090 0 gusting 2 25.6
2020-Aug-05 17:53 080 0 gusting 3 25.6
2020-Aug-05 17:43 078 0 gusting 3 25.6
2020-Aug-05 17:33 101 1 gusting 4 25.6
2020-Aug-05 17:23 101 0 gusting 4 25.6
2020-Aug-05 17:13 135 1 gusting 5 25.6
2020-Aug-05 17:03 117 0 gusting 4 25.6
2020-Aug-05 16:53 111 1 gusting 6 25.6
2020-Aug-05 16:43 138 0 gusting 5 25.6
2020-Aug-05 16:33 122 1 gusting 7 25.6
2020-Aug-05 16:23 138 2 gusting 6 25.6
2020-Aug-05 16:13 134 1 gusting 6 25.6
2020-Aug-05 16:03 152 2 gusting 6 26.1
2020-Aug-05 15:53 140 2 gusting 7 26.1
2020-Aug-05 15:43 156 2 gusting 6 26.1
2020-Aug-05 15:33 154 3 gusting 7 26.1
2020-Aug-05 15:23 161 3 gusting 7 26.1
2020-Aug-05 15:13 132 3 gusting 6 26.7
2020-Aug-05 15:03 139 2 gusting 6 26.7
2020-Aug-05 14:53 144 6 gusting 8 26.7
2020-Aug-05 14:43 138 4 gusting 6 27.2
2020-Aug-05 14:33 160 2 gusting 6 26.7
2020-Aug-05 14:23 110 4 gusting 8 26.7
2020-Aug-05 14:13 153 3 gusting 6 26.7
2020-Aug-05 14:03 126 3 gusting 7 26.7
2020-Aug-05 13:53 149 5 gusting 7 26.7
2020-Aug-05 13:43 140 3 gusting 7 26.1
2020-Aug-05 13:33 184 3 gusting 8 26.1
2020-Aug-05 13:23 123 5 gusting 7 26.7
2020-Aug-05 13:13 135 2 gusting 8 26.7
2020-Aug-05 13:03 150 3 gusting 6 26.7
2020-Aug-05 12:53 151 4 gusting 8 26.7
2020-Aug-05 12:43 156 4 gusting 8 26.7
2020-Aug-05 12:33 178 4 gusting 8 26.7
2020-Aug-05 12:23 174 5 gusting 7 26.7
2020-Aug-05 12:13 163 3 gusting 8 26.1
2020-Aug-05 12:03 163 2 gusting 7 26.1
2020-Aug-05 11:53 175 5 gusting 9 26.1
2020-Aug-05 11:43 163 4 gusting 7 26.1
2020-Aug-05 11:33 146 2 gusting 7 26.1
2020-Aug-05 11:23 167 5 gusting 8 26.1
2020-Aug-05 11:13 164 4 gusting 7 26.1
2020-Aug-05 11:03 173 4 gusting 7 26.1
2020-Aug-05 10:53 169 3 gusting 6 26.1
2020-Aug-05 10:43 119 2 gusting 6 26.1
2020-Aug-05 10:33 143 1 gusting 7 26.1
2020-Aug-05 10:23 170 3 gusting 6 25.6
2020-Aug-05 10:13 176 3 gusting 6 25.6
2020-Aug-05 10:03 184 2 gusting 6 25.6
2020-Aug-05 09:53 157 1 gusting 5 25.6
2020-Aug-05 09:43 127 0 gusting 5 26.1
2020-Aug-05 09:33 122 4 gusting 7 25.6
2020-Aug-05 09:23 149 1 gusting 5 26.1
2020-Aug-05 09:13 142 1 gusting 6 26.1
2020-Aug-05 09:03 140 2 gusting 4 25.6
2020-Aug-05 08:53 109 1 gusting 4 26.1
2020-Aug-05 08:43 130 1 gusting 6 25.6
2020-Aug-05 08:33 153 0 gusting 5 25.0
2020-Aug-05 08:23 133 1 gusting 4 25.0
2020-Aug-05 08:13 120 0 gusting 6 25.0
2020-Aug-05 08:04 137 1 gusting 5 25.6
2020-Aug-05 07:53 047 1 gusting 6 25.6
2020-Aug-05 07:43 032 0 gusting 4 25.0
2020-Aug-05 07:33 044 1 gusting 3 25.6
2020-Aug-05 07:23 043 0 gusting 1 25.6
2020-Aug-05 07:13 059 0 gusting 2 25.0
2020-Aug-05 07:03 161 0 gusting 3 24.4
2020-Aug-05 06:53 163 1 gusting 4 24.4
2020-Aug-05 06:43 198 0 gusting 1 23.9
2020-Aug-05 06:33 277 23.9
2020-Aug-05 06:23 284 23.3
2020-Aug-05 06:13 284 22.8
2020-Aug-05 06:03 284 22.8
2020-Aug-05 05:53 263 22.2
2020-Aug-05 05:43 284 22.2
2020-Aug-05 05:33 286 21.7
2020-Aug-05 05:23 286 21.7
2020-Aug-05 05:13 286 1 gusting 3 21.7
2020-Aug-05 05:03 286 0 gusting 2 21.7
2020-Aug-05 04:53 286 21.7
2020-Aug-05 04:43 286 21.7
2020-Aug-05 04:33 286 22.2
2020-Aug-05 04:23 286 0 gusting 2 22.2
2020-Aug-05 04:13 286 22.2
2020-Aug-05 04:03 285 22.2
2020-Aug-05 03:53 286 22.2
2020-Aug-05 03:43 285 22.2
2020-Aug-05 03:33 284 2 gusting 3 22.2
2020-Aug-05 03:23 279 1 gusting 2 22.2
2020-Aug-05 03:13 279 22.8
2020-Aug-05 03:03 279 0 gusting 2 22.8
2020-Aug-05 02:53 279 0 gusting 3 22.8
2020-Aug-05 02:43 279 0 gusting 3 22.8
2020-Aug-05 02:33 279 0 gusting 4 22.2
2020-Aug-05 02:23 279 1 gusting 2 22.2
2020-Aug-05 02:13 279 0 gusting 2 22.2
2020-Aug-05 02:03 279 22.2
2020-Aug-05 01:53 279 1 gusting 3 22.2
2020-Aug-05 01:43 275 2 gusting 3 21.7
2020-Aug-05 01:33 275 22.2
2020-Aug-05 01:23 275 22.2
2020-Aug-05 01:13 275 22.2
2020-Aug-05 01:03 275 22.2
2020-Aug-05 00:53 275 22.2
2020-Aug-05 00:43 275 22.2
2020-Aug-05 00:33 275 22.2
2020-Aug-05 00:23 275 0 gusting 2 22.2
2020-Aug-05 00:13 275 22.2
2020-Aug-05 00:03 275 0 gusting 1 22.2
2020-Aug-04 23:53 275 2 gusting 4 22.2
2020-Aug-04 23:43 267 22.2
2020-Aug-04 23:23 267 0 gusting 2 22.2
2020-Aug-04 23:13 265 22.2
2020-Aug-04 23:03 265 22.8
2020-Aug-04 22:53 265 22.8
2020-Aug-04 22:43 265 22.8
2020-Aug-04 22:33 264 22.8
2020-Aug-04 22:23 265 0 gusting 3 22.8
2020-Aug-04 22:13 263 23.3
2020-Aug-04 22:03 257 23.3
2020-Aug-04 21:53 257 23.3
2020-Aug-04 21:43 257 23.9
2020-Aug-04 21:33 256 23.9
2020-Aug-04 21:23 214 23.9
2020-Aug-04 21:13 214 23.9
2020-Aug-04 21:03 214 0 gusting 4 23.9
2020-Aug-04 20:53 194 23.9
2020-Aug-04 20:43 194 23.9
2020-Aug-04 20:33 192 23.9
2020-Aug-04 20:23 193 0 gusting 4 23.9
2020-Aug-04 20:13 193 1 gusting 4 23.9
2020-Aug-04 20:03 227 2 gusting 5 24.4
2020-Aug-04 19:53 228 4 gusting 6 24.4
2020-Aug-04 19:43 244 0 gusting 4 24.4
2020-Aug-04 19:33 210 1 gusting 6 24.4
2020-Aug-04 19:23 237 2 gusting 6 24.4
2020-Aug-04 19:13 210 3 gusting 6 24.4
2020-Aug-04 19:03 199 4 gusting 6 24.4
2020-Aug-04 18:53 194 2 gusting 6 24.4
2020-Aug-04 18:43 061 1 gusting 6 24.4
2020-Aug-04 18:33 205 4 gusting 6 24.4
2020-Aug-04 18:23 161 2 gusting 6 24.4
2020-Aug-04 18:13 161 5 gusting 9 24.4
2020-Aug-04 18:03 160 6 gusting 8 24.4
2020-Aug-04 17:53 175 4 gusting 9 24.4
2020-Aug-04 17:43 232 3 gusting 9 24.4
2020-Aug-04 17:33 216 3 gusting 9 24.4
2020-Aug-04 17:23 236 3 gusting 7 24.4
2020-Aug-04 17:13 196 4 gusting 7 24.4
2020-Aug-04 17:03 203 3 gusting 8 24.4
2020-Aug-04 16:53 219 4 gusting 8 24.4
2020-Aug-04 16:43 167 5 gusting 10 24.4
2020-Aug-04 16:33 200 6 gusting 10 24.4
2020-Aug-04 16:23 200 4 gusting 10 24.4
2020-Aug-04 16:13 171 5 gusting 8 24.4
2020-Aug-04 16:03 199 5 gusting 10 24.4
2020-Aug-04 15:53 202 5 gusting 9 24.4
2020-Aug-04 15:43 207 6 gusting 10 24.4
2020-Aug-04 15:33 215 5 gusting 11 24.4
2020-Aug-04 15:23 160 6 gusting 12 25.0
2020-Aug-04 15:13 198 6 gusting 12 25.0
2020-Aug-04 15:03 180 7 gusting 12 25.0
2020-Aug-04 14:53 217 5 gusting 12 25.0
2020-Aug-04 14:43 229 6 gusting 13 25.0
2020-Aug-04 14:33 242 6 gusting 11 25.0
2020-Aug-04 14:23 199 4 gusting 12 25.0
2020-Aug-04 14:13 234 6 gusting 12 25.0
2020-Aug-04 14:03 215 6 gusting 12 25.0
2020-Aug-04 13:53 244 6 gusting 10 25.0
2020-Aug-04 13:43 200 6 gusting 12 25.0
2020-Aug-04 13:33 226 5 gusting 12 25.0
2020-Aug-04 13:23 246 4 gusting 11 24.4
2020-Aug-04 13:13 196 5 gusting 10 24.4
2020-Aug-04 13:03 194 6 gusting 11 24.4
2020-Aug-04 12:53 224 6 gusting 11 24.4
2020-Aug-04 12:43 168 5 gusting 11 24.4
2020-Aug-04 12:33 195 6 gusting 11 24.4
2020-Aug-04 12:23 205 4 gusting 8 24.4
2020-Aug-04 12:13 182 6 gusting 8 23.9
2020-Aug-04 12:03 224 3 gusting 8 24.4
2020-Aug-04 11:53 214 4 gusting 9 24.4
2020-Aug-04 11:43 175 2 gusting 7 23.9
2020-Aug-04 11:33 179 5 gusting 6 23.9
2020-Aug-04 11:23 175 1 gusting 6 23.3
2020-Aug-04 11:13 122 1 gusting 6 23.3
2020-Aug-04 11:03 144 2 gusting 6 23.9
2020-Aug-04 10:53 173 2 gusting 6 23.9
2020-Aug-04 10:43 179 0 gusting 3 22.8
2020-Aug-04 10:33 205 0 gusting 4 22.8
2020-Aug-04 10:23 130 0 gusting 3 22.8
2020-Aug-04 10:13 117 2 gusting 4 23.3
2020-Aug-04 10:03 036 0 gusting 4 23.3
2020-Aug-04 09:53 045 22.8
2020-Aug-04 09:43 127 0 gusting 4 22.8
2020-Aug-04 09:33 150 0 gusting 3 22.2
2020-Aug-04 09:23 148 22.2
2020-Aug-04 09:13 147 22.2
2020-Aug-04 09:03 130 1 gusting 4 22.2
2020-Aug-04 08:53 109 22.2
2020-Aug-04 08:43 167 0 gusting 4 22.2
2020-Aug-04 08:33 124 1 gusting 4 22.2
2020-Aug-04 08:23 136 0 gusting 4 21.7
2020-Aug-04 08:13 111 0 gusting 3 21.7
2020-Aug-04 08:03 125 0 gusting 3 21.7
2020-Aug-04 07:53 123 0 gusting 4 21.7
2020-Aug-04 07:43 057 21.7
2020-Aug-04 07:33 059 21.1
2020-Aug-04 07:23 058 21.1
2020-Aug-04 07:13 050 1 gusting 6 20.6
2020-Aug-04 07:03 056 0 gusting 3 20.6
2020-Aug-04 06:53 051 0 gusting 4 20.6
2020-Aug-04 06:43 013 21.1
2020-Aug-04 06:33 011 21.1
2020-Aug-04 06:23 012 20.6
2020-Aug-04 06:13 011 20.6
2020-Aug-04 06:03 005 0 gusting 5 20.6
2020-Aug-04 05:53 029 0 gusting 4 21.1
2020-Aug-04 05:43 028 0 gusting 2 21.1
2020-Aug-04 05:33 028 21.1
2020-Aug-04 05:23 028 21.1
2020-Aug-04 05:13 026 0 gusting 4 21.7
2020-Aug-04 05:03 055 21.7
2020-Aug-04 04:53 059 3 gusting 8 21.7
2020-Aug-04 04:43 046 0 gusting 6 21.7
2020-Aug-04 04:33 063 0 gusting 6 21.7
2020-Aug-04 04:23 059 1 gusting 6 22.2
2020-Aug-04 04:13 068 2 gusting 6 22.8
2020-Aug-04 04:03 056 2 gusting 7 22.8
2020-Aug-04 03:53 239 1 gusting 4 22.8
2020-Aug-04 03:43 341 2 gusting 5 22.8
2020-Aug-04 03:33 318 1 gusting 6 22.8
2020-Aug-04 03:23 360 3 gusting 6 22.2
2020-Aug-04 03:13 346 2 gusting 4 22.2
2020-Aug-04 03:03 340 2 gusting 5 22.2
2020-Aug-04 02:53 336 2 gusting 5 22.2
2020-Aug-04 02:43 316 3 gusting 7 21.7
2020-Aug-04 02:33 323 5 gusting 13 22.2
2020-Aug-04 02:23 330 2 gusting 4 22.8
2020-Aug-04 02:13 346 0 gusting 5 22.8
2020-Aug-04 02:03 337 3 gusting 5 22.8
2020-Aug-04 01:53 011 4 gusting 6 23.3
2020-Aug-04 01:43 338 3 gusting 11 23.3
2020-Aug-04 01:33 303 2 gusting 5 24.4
2020-Aug-04 01:23 261 2 gusting 6 24.4
2020-Aug-04 01:13 237 2 gusting 6 24.4
2020-Aug-04 01:03 223 1 gusting 4 24.4
2020-Aug-04 00:53 278 0 gusting 4 24.4
2020-Aug-04 00:43 246 1 gusting 4 24.4
2020-Aug-04 00:33 276 1 gusting 3 24.4
2020-Aug-04 00:23 311 0 gusting 3 23.9
2020-Aug-04 00:13 302 0 gusting 3 24.4
2020-Aug-04 00:03 303 0 gusting 3 24.4
2020-Aug-03 23:53 292 0 gusting 2 24.4
2020-Aug-03 23:43 292 0 gusting 3 24.4
2020-Aug-03 23:33 300 24.4
2020-Aug-03 23:23 284 0 gusting 3 24.4
2020-Aug-03 23:13 259 24.4
2020-Aug-03 23:03 253 0 gusting 2 24.4
2020-Aug-03 22:53 219 1 gusting 4 24.4
2020-Aug-03 22:43 211 1 gusting 5 24.4
2020-Aug-03 22:33 230 0 gusting 4 24.4
2020-Aug-03 22:23 205 1 gusting 3 24.4
2020-Aug-03 22:13 241 0 gusting 3 24.4
2020-Aug-03 22:03 202 1 gusting 5 23.9